Location: Embouchure
(18.0644°N, 63.0193°W)
Time: 03:41:22
(UTC+00:00)

Daily predictions for brighter satellites

Satellite Brightness Start Highest point End
(mag) Time Altitude Azimuth Time Altitude Azimuth Time Altitude Azimuth
Centaur D-1AR AC-36 3.3 00:01:50 10° W 00:10:27 45° WNW 00:10:27 45° WNW
ATLAS 5 CENTAUR R/B 3.6 00:12:47 10° W 00:18:43 55° S 00:46:10 10° ESE
Lacrosse 5 4.2 00:21:46 10° WSW 00:23:29 20° WSW 00:23:29 20° WSW
ATLAS 3B CENTAUR R/B 4.4 00:26:08 10° SW 00:36:38 68° SSE 00:37:22 68° SE
H-2A R/B 3.9 00:21:13 10° WNW 00:43:28 49° SW 00:43:28 49° SW
Centaur D-1A AC-31 3.8 00:43:14 10° WNW 01:23:42 21° ESE 10:39:59 10° SE
CZ-3B R/B 4.3 01:15:34 10° W 01:19:18 31° W 01:19:18 31° W
CZ-3B R/B 3.5 07:26:42 74° SSE 07:26:42 74° SSE 07:35:57 10° ESE
Meteosat 1 Rocket2 4.4 08:18:34 42° NE 08:18:34 42° NE 08:23:48 10° E
Cosmos 2333 Rocket 3.8 08:35:29 21° SSW 08:35:29 21° SSW 08:37:38 10° SSW
FALCON 9 R/B 3.9 08:35:06 29° NNW 08:36:37 31° N 08:50:58 10° ENE
Cosmos 1315 Rocket 4.5 08:40:13 26° S 08:40:13 26° S 08:42:03 10° S
SEDSat Delta rocket 3.3 08:39:05 57° ENE 08:39:05 57° ENE 08:42:30 10° ESE
Cosmos 2034 Rocket 4.3 08:32:51 10° S 08:39:00 64° E 08:45:14 10° NNE
Cosmos 1707 Rocket 3.7 08:42:14 56° NNE 08:43:00 70° E 08:47:20 10° S
Cosmos 2237 Rocket 2.1 08:41:13 44° N 08:43:04 82° ENE 08:48:40 10° SSE
Meteor 2-11 Rocket 4.4 08:42:06 10° S 08:48:10 80° E 08:54:15 10° N
Centaur AC-42 3.1 08:51:07 40° W 08:53:34 85° N 09:22:40 10° E
Centaur AC-42 3.1 08:51:07 40° W 08:53:35 85° N 09:22:40 10° E
Centaur AC-42 3.1 08:51:07 40° W 08:53:35 85° N 09:22:39 10° E
GPS 2-14 Rocket1 4.1 08:57:28 25° SSW 08:57:37 25° SSW 09:00:58 10° SE
Cosmos 1484 Rocket 2.9 08:55:30 10° NNE 08:59:22 74° ESE 09:03:10 10° S
Cosmos 1624 Rocket 4.1 08:55:24 10° SSW 09:00:31 53° WNW 09:05:42 10° N
Cosmos 2219 Rocket 4.1 09:03:06 14° SW 09:03:06 14° SW 09:04:22 10° SW
PSLV R/B 4.0 08:56:39 10° NNE 09:00:46 78° ESE 09:04:51 10° S
Cosmos 2056 Rocket 3.6 09:00:42 10° SSW 09:05:37 47° WNW 09:10:31 10° N
Delta 2 Rocket 4.0 09:02:56 36° WNW 09:05:52 89° NNE 09:13:22 10° ESE
Cosmos 2263 Rocket 2.4 09:02:34 10° S 09:08:08 70° ESE 09:13:41 10° NNE
CZ-4B DEB 4.5 09:05:07 10° NNE 09:10:37 70° ESE 09:16:09 10° S
SJ-12 4.1 09:07:12 10° NNE 09:11:18 73° ESE 09:15:21 10° S
Cosmos 1464 Rocket 4.4 09:07:01 10° SSW 09:12:46 38° W 09:18:27 10° NNW
Cosmos 1980 4.0 09:11:06 31° WNW 09:13:11 43° WSW 09:18:30 10° S
Cosmos 2227 4.1 09:09:01 10° SSW 09:14:40 68° WNW 09:20:24 10° N
Cosmos 1933 Rocket 3.4 09:10:32 10° SSW 09:14:49 66° W 09:19:07 10° N
STARLINK-80 3.3 09:13:34 41° NW 09:14:50 85° SW 09:18:38 10° SE
Lacrosse 5 3.5 09:12:22 10° N 09:16:44 29° NE 09:21:05 10° ESE
Aureole 1 Rocket 4.3 09:11:53 10° NNW 09:18:06 85° ENE 09:25:58 10° SSE
Cosmos 1812 2.7 09:16:26 10° N 09:20:17 85° E 09:24:07 10° S
BREEZE-M DEB (TANK) 2.9 09:18:24 10° SW 09:21:40 64° SE 09:23:57 10° NE
CZ-3B R/B 4.0 09:16:02 18° W 09:23:10 33° SW 09:30:29 10° SSE
STARLINK-48 3.4 09:22:58 25° NNW 09:25:10 81° NE 09:29:02 10° SE
Cosmos 1420 Rocket 3.9 09:22:11 10° SSW 09:27:24 73° WNW 09:32:36 10° N
CZ-3B R/B 3.5 09:25:34 12° SW 09:27:48 20° S 09:33:03 10° SE
Timation 1 Rocket 4.3 09:22:16 10° SSW 09:28:13 89° WNW 09:34:11 10° NNE
Meteor 1-25 Rocket 4.2 09:23:24 10° S 09:28:56 83° E 09:34:31 10° N
Abrixas rocket 3.8 09:30:13 17° SW 09:30:21 17° SW 09:32:26 10° S
ALOS 2.2 09:28:43 10° N 09:33:22 73° WNW 09:38:00 10° SSW
GPS 2-15 Rocket1 3.2 09:32:38 16° WSW 09:36:40 84° SSE 09:41:36 10° E
Gbstr 26 Del rocket 2.6 09:34:03 17° NW 09:36:49 85° NE 09:40:47 10° SE
COSMO-SKYMED 1 3.0 09:33:29 10° SSE 09:37:46 65° ENE 09:42:04 10° N
COBE Rocket 4.3 09:35:39 10° S 09:40:21 41° W 09:44:57 10° NNW
GPS 2-17 Rocket1 3.2 09:39:19 17° W 09:42:58 80° SSW 09:47:47 10° ESE
CZ-4B R/B 3.3 09:39:21 10° N 09:45:00 84° W 09:50:40 10° SSW
PAYLOAD B 4.4 09:44:54 10° N 09:50:12 51° WNW 09:55:33 10° SSW
FENGYUN 3A 3.8 09:46:33 10° N 09:51:42 50° WNW 09:56:52 10° SSW
Cosmos 1452 Rocket 3.6 09:47:15 10° SSW 09:52:21 52° WNW 09:57:28 10° N
Okean O Rocket 1.7 09:50:09 10° N 09:54:26 54° WNW 09:58:44 10° SSW
Delta 198 3.8 09:53:26 12° WNW 09:56:43 35° N 10:00:04 10° ENE
GEOS 3 Rocket 3.7 09:52:12 10° SSE 09:57:16 82° ENE 10:02:21 10° NNW
Helios 1A Rocket 3.1 09:55:45 10° N 09:59:36 45° WNW 10:03:26 10° SSW
Cosmos 2242 Rocket 3.8 09:55:41 10° NNW 10:00:05 53° W 10:04:25 10° S
Chandra Rocket (1) 4.0 09:47:46 11° WNW 10:02:50 50° SW 10:07:30 10° SE
Nadezhda 4 Rocket 4.2 09:57:27 10° NNW 10:03:18 47° W 10:09:07 10° SSW
Cosmos 1703 Rocket 3.6 10:02:38 10° N 10:07:03 88° W 10:11:26 10° S
NOAA 6 4.4 10:04:05 10° N 10:08:52 42° WNW 10:13:41 10° SW
Cosmos 1869 Rocket 3.9 10:05:46 10° SSW 10:09:49 40° W 10:13:53 10° NNW
